EXS71AS EGCC-LGSM

Flight info

Callsign EXS71AS
Flight time 3h 27m
Altitude 37000
Route SANBA N859 HON L15 FINMA DCT CHT DCT ITVIP DCT KONAN DCT KOK DCT KOMOB DCT KRH DCT UTABA DCT MOMUK DCT GEDSO DCT VEKEN DCT KANIN DCT NEMEK DCT KOTOR DCT TUPUS DCT OSLUD DCT MEDUX UM867 KOGAT DCT ERANA UL737 TSL UN130 MES L609 PIPEN Y94 ORMOS
Aircraft A21N/M-SDE2E3FGHIRWXY/LB1

Departure

Time 2026-05-07 15:09
Airport Manchester Airport (EGCC)

Arrival

Time 2026-05-07 18:36
Airport Samos Airport (LGSM)
Time Latitude Longitude Altitude Speed Heading
2026-05-07 14:12 53.37016 -2.28902 259 ft 0 kts 316°
2026-05-07 14:49 53.37014 -2.28899 259 ft 0 kts 316°
2026-05-07 14:50 53.37004 -2.28881 259 ft 2 kts 297°
2026-05-07 14:50 53.37000 -2.28857 259 ft 2 kts 279°
2026-05-07 14:50 53.36999 -2.28831 259 ft 2 kts 259°
2026-05-07 14:50 53.37004 -2.28807 259 ft 2 kts 240°
2026-05-07 14:51 53.37010 -2.28794 259 ft 0 kts 227°
2026-05-07 14:51 53.37015 -2.28786 259 ft 0 kts 225°
2026-05-07 14:54 53.37007 -2.28799 259 ft 3 kts 225°
2026-05-07 14:55 53.36978 -2.28846 259 ft 7 kts 224°
2026-05-07 14:55 53.36931 -2.28925 259 ft 11 kts 225°
2026-05-07 14:55 53.36874 -2.29021 259 ft 11 kts 225°
2026-05-07 14:55 53.36813 -2.29087 259 ft 5 kts 199°
2026-05-07 14:56 53.36776 -2.29107 259 ft 6 kts 193°
2026-05-07 14:56 53.36731 -2.29104 259 ft 7 kts 160°
2026-05-07 14:56 53.36685 -2.29049 259 ft 9 kts 135°
2026-05-07 14:56 53.36644 -2.28967 259 ft 9 kts 117°
2026-05-07 14:57 53.36613 -2.28860 259 ft 10 kts 115°
2026-05-07 14:57 53.36572 -2.28742 259 ft 12 kts 132°
2026-05-07 14:57 53.36508 -2.28634 259 ft 13 kts 135°
2026-05-07 14:57 53.36440 -2.28518 259 ft 14 kts 133°
2026-05-07 14:58 53.36382 -2.28385 259 ft 14 kts 131°
2026-05-07 14:58 53.36312 -2.28266 259 ft 14 kts 135°
2026-05-07 14:58 53.36241 -2.28147 259 ft 14 kts 135°
2026-05-07 14:58 53.36172 -2.28031 259 ft 11 kts 135°
2026-05-07 14:59 53.36117 -2.27938 259 ft 11 kts 135°
2026-05-07 14:59 53.36057 -2.27843 259 ft 12 kts 152°
2026-05-07 14:59 53.36003 -2.27832 259 ft 5 kts 187°
2026-05-07 14:59 53.35993 -2.27834 259 ft 0 kts 187°
2026-05-07 15:00 53.35990 -2.27834 259 ft 0 kts 187°
2026-05-07 15:00 53.35970 -2.27838 259 ft 5 kts 187°
2026-05-07 15:00 53.35915 -2.27848 259 ft 9 kts 186°
2026-05-07 15:00 53.35855 -2.27820 259 ft 9 kts 133°
2026-05-07 15:01 53.35810 -2.27732 259 ft 10 kts 131°
2026-05-07 15:01 53.35754 -2.27658 259 ft 9 kts 157°
2026-05-07 15:01 53.35689 -2.27615 259 ft 9 kts 153°
2026-05-07 15:01 53.35646 -2.27563 259 ft 3 kts 141°
2026-05-07 15:02 53.35643 -2.27560 259 ft 0 kts 141°
2026-05-07 15:02 53.35642 -2.27558 259 ft 1 kts 141°
2026-05-07 15:03 53.35629 -2.27540 259 ft 3 kts 140°
2026-05-07 15:03 53.35600 -2.27499 259 ft 7 kts 141°
2026-05-07 15:03 53.35554 -2.27437 259 ft 9 kts 141°
2026-05-07 15:03 53.35495 -2.27357 259 ft 12 kts 141°
2026-05-07 15:04 53.35427 -2.27266 259 ft 12 kts 141°
2026-05-07 15:04 53.35355 -2.27194 259 ft 12 kts 172°
2026-05-07 15:04 53.35273 -2.27212 259 ft 11 kts 191°
2026-05-07 15:04 53.35231 -2.27226 259 ft 5 kts 191°
2026-05-07 15:05 53.35192 -2.27239 259 ft 6 kts 192°
2026-05-07 15:05 53.35162 -2.27249 259 ft 0 kts 192°
2026-05-07 15:06 53.35145 -2.27255 259 ft 4 kts 192°
2026-05-07 15:06 53.35094 -2.27273 259 ft 9 kts 192°
2026-05-07 15:06 53.35031 -2.27294 259 ft 7 kts 194°
2026-05-07 15:07 53.35000 -2.27332 259 ft 3 kts 232°
2026-05-07 15:07 53.34996 -2.27340 259 ft 0 kts 232°
2026-05-07 15:08 53.34996 -2.27341 259 ft 0 kts 232°
2026-05-07 15:08 53.34914 -2.27513 259 ft 54 kts 231°
2026-05-07 15:08 53.34520 -2.28329 259 ft 124 kts 231°
2026-05-07 15:09 53.33855 -2.29704 288 ft 175 kts 230°
2026-05-07 15:09 53.33090 -2.31309 881 ft 179 kts 231°
2026-05-07 15:09 53.32341 -2.32953 1623 ft 180 kts 231°
2026-05-07 15:09 53.31809 -2.34814 2290 ft 189 kts 262°
2026-05-07 15:10 53.31962 -2.37101 2749 ft 206 kts 280°
2026-05-07 15:10 53.32327 -2.39510 3180 ft 223 kts 280°
2026-05-07 15:10 53.32276 -2.42167 3471 ft 240 kts 244°
2026-05-07 15:10 53.31201 -2.44300 3931 ft 251 kts 209°
2026-05-07 15:11 53.29539 -2.45075 4576 ft 256 kts 181°
2026-05-07 15:11 53.27777 -2.44878 5405 ft 259 kts 171°
2026-05-07 15:11 53.26047 -2.44007 6300 ft 262 kts 158°
2026-05-07 15:11 53.24416 -2.42658 7118 ft 266 kts 155°
2026-05-07 15:12 53.22792 -2.41223 7912 ft 269 kts 154°
2026-05-07 15:12 53.21134 -2.39748 8746 ft 272 kts 154°
2026-05-07 15:12 53.19478 -2.38282 9512 ft 275 kts 154°
2026-05-07 15:12 53.17794 -2.36799 10257 ft 278 kts 154°
2026-05-07 15:13 53.16057 -2.35278 10748 ft 291 kts 154°
2026-05-07 15:13 53.14210 -2.33664 11116 ft 308 kts 154°
2026-05-07 15:13 53.12278 -2.31976 11475 ft 324 kts 154°
2026-05-07 15:13 53.10254 -2.30209 12091 ft 331 kts 154°
2026-05-07 15:14 53.08241 -2.28449 12832 ft 333 kts 154°
2026-05-07 15:14 53.06171 -2.26645 13551 ft 336 kts 154°
2026-05-07 15:14 53.04108 -2.24851 14243 ft 339 kts 154°
2026-05-07 15:14 53.01998 -2.23017 14914 ft 342 kts 154°
2026-05-07 15:15 52.99902 -2.21195 15547 ft 346 kts 154°
2026-05-07 15:15 52.97764 -2.19342 16168 ft 350 kts 154°
2026-05-07 15:15 52.95596 -2.17464 16772 ft 354 kts 154°
2026-05-07 15:15 52.93413 -2.15575 17355 ft 359 kts 154°
2026-05-07 15:16 52.91199 -2.13661 17917 ft 363 kts 154°
2026-05-07 15:16 52.88938 -2.11710 18464 ft 368 kts 154°
2026-05-07 15:16 52.86671 -2.09755 19027 ft 371 kts 154°
2026-05-07 15:16 52.84363 -2.07769 19621 ft 374 kts 154°
2026-05-07 15:17 52.82046 -2.05775 20214 ft 376 kts 154°
2026-05-07 15:17 52.79722 -2.03778 20773 ft 378 kts 154°
2026-05-07 15:17 52.77384 -2.01772 21308 ft 381 kts 154°
2026-05-07 15:17 52.75045 -1.99768 21830 ft 384 kts 154°
2026-05-07 15:18 52.72658 -1.97723 22345 ft 387 kts 154°
2026-05-07 15:18 52.70263 -1.95675 22833 ft 390 kts 154°
2026-05-07 15:18 52.67860 -1.93624 23319 ft 393 kts 154°
2026-05-07 15:18 52.65420 -1.91542 23793 ft 396 kts 154°
2026-05-07 15:19 52.62997 -1.89477 24251 ft 399 kts 154°
2026-05-07 15:19 52.60533 -1.87382 24692 ft 402 kts 154°
2026-05-07 15:19 52.58031 -1.85257 25136 ft 404 kts 154°
2026-05-07 15:19 52.55554 -1.83156 25595 ft 406 kts 154°
2026-05-07 15:20 52.53050 -1.81032 26001 ft 409 kts 154°
2026-05-07 15:20 52.50510 -1.78881 26376 ft 411 kts 154°
2026-05-07 15:20 52.47956 -1.76722 26778 ft 413 kts 154°
2026-05-07 15:20 52.45418 -1.74579 27144 ft 415 kts 154°
2026-05-07 15:21 52.42856 -1.72419 27496 ft 418 kts 154°
2026-05-07 15:21 52.40290 -1.70259 27830 ft 420 kts 154°
2026-05-07 15:21 52.37732 -1.67913 28151 ft 423 kts 149°
2026-05-07 15:21 52.35318 -1.65138 28477 ft 426 kts 143°
2026-05-07 15:22 52.33078 -1.61944 28807 ft 429 kts 137°
2026-05-07 15:22 52.30996 -1.58474 29119 ft 431 kts 135°
2026-05-07 15:22 52.28941 -1.54955 29376 ft 434 kts 134°
2026-05-07 15:22 52.26853 -1.51367 29655 ft 436 kts 134°
2026-05-07 15:23 52.24778 -1.47813 29944 ft 438 kts 134°
2026-05-07 15:23 52.22675 -1.44221 30222 ft 439 kts 134°
2026-05-07 15:23 52.20574 -1.40645 30589 ft 438 kts 134°
2026-05-07 15:23 52.18475 -1.37080 30985 ft 437 kts 134°
2026-05-07 15:24 52.16380 -1.33528 31334 ft 435 kts 135°
2026-05-07 15:24 52.14276 -1.29968 31644 ft 435 kts 135°
2026-05-07 15:24 52.12195 -1.26451 31946 ft 435 kts 135°
2026-05-07 15:24 52.11133 -1.24658 32101 ft 434 kts 135°
2026-05-07 15:25 52.10271 -1.23204 32222 ft 434 kts 135°
2026-05-07 15:25 52.08168 -1.19661 32492 ft 434 kts 135°
2026-05-07 15:25 52.06094 -1.16172 32748 ft 434 kts 135°
2026-05-07 15:25 52.03997 -1.12653 33003 ft 434 kts 135°
2026-05-07 15:26 52.01919 -1.09171 33242 ft 434 kts 135°
2026-05-07 15:26 51.99789 -1.05676 33442 ft 435 kts 137°
2026-05-07 15:26 51.97568 -1.02371 33618 ft 436 kts 139°
2026-05-07 15:26 51.95288 -0.99077 33803 ft 437 kts 139°
2026-05-07 15:27 51.93015 -0.95792 33984 ft 438 kts 139°
2026-05-07 15:27 51.90763 -0.92539 34158 ft 439 kts 139°
2026-05-07 15:27 51.88500 -0.89278 34327 ft 440 kts 139°
2026-05-07 15:27 51.86214 -0.85987 34502 ft 440 kts 139°
2026-05-07 15:28 51.83904 -0.82665 34686 ft 441 kts 139°
2026-05-07 15:28 51.81614 -0.79378 34853 ft 442 kts 140°
2026-05-07 15:28 51.79351 -0.76133 34982 ft 442 kts 140°
2026-05-07 15:28 51.77024 -0.72802 34998 ft 443 kts 140°
2026-05-07 15:29 51.72438 -0.66253 35014 ft 443 kts 140°
2026-05-07 15:29 51.67881 -0.59612 35015 ft 445 kts 136°
2026-05-07 15:30 51.63887 -0.51984 35018 ft 448 kts 126°
2026-05-07 15:30 51.60772 -0.43383 35018 ft 451 kts 116°
2026-05-07 15:31 51.58538 -0.33963 35022 ft 453 kts 110°
2026-05-07 15:31 51.56569 -0.24365 35022 ft 453 kts 110°
2026-05-07 15:32 51.54577 -0.14732 35024 ft 458 kts 110°
2026-05-07 15:32 51.52547 -0.05029 35029 ft 465 kts 110°
2026-05-07 15:33 51.50463 0.04868 35030 ft 468 kts 110°
2026-05-07 15:33 51.48380 0.14700 35034 ft 468 kts 110°
2026-05-07 15:34 51.46282 0.24565 35036 ft 470 kts 110°
2026-05-07 15:34 51.44163 0.34474 35034 ft 470 kts 110°
2026-05-07 15:35 51.42051 0.44307 35031 ft 470 kts 110°
2026-05-07 15:35 51.39920 0.54185 35034 ft 470 kts 110°
2026-05-07 15:36 51.37794 0.63983 35032 ft 470 kts 110°
2026-05-07 15:36 51.35638 0.73875 35031 ft 470 kts 111°
2026-05-07 15:37 51.33492 0.83673 35036 ft 470 kts 110°
2026-05-07 15:37 51.31330 0.93508 35035 ft 470 kts 111°
2026-05-07 15:38 51.29170 1.03343 35033 ft 471 kts 109°
2026-05-07 15:38 51.27396 1.13400 35038 ft 473 kts 105°
2026-05-07 15:39 51.25764 1.23518 35036 ft 473 kts 105°
2026-05-07 15:39 51.24122 1.33631 35039 ft 472 kts 105°
2026-05-07 15:40 51.22475 1.43694 35036 ft 472 kts 105°
2026-05-07 15:40 51.20810 1.53799 35036 ft 473 kts 105°
2026-05-07 15:41 51.19132 1.63928 35032 ft 473 kts 105°
2026-05-07 15:41 51.17443 1.74071 35039 ft 473 kts 106°
2026-05-07 15:42 51.15757 1.84124 35036 ft 472 kts 106°
2026-05-07 15:42 51.14075 1.94196 35043 ft 473 kts 104°
2026-05-07 15:43 51.12864 2.04479 35034 ft 474 kts 98°
2026-05-07 15:43 51.12242 2.14981 35050 ft 474 kts 95°
2026-05-07 15:44 51.11691 2.25527 35039 ft 474 kts 95°
2026-05-07 15:44 51.11128 2.35920 35037 ft 474 kts 95°
2026-05-07 15:45 51.10538 2.46469 35037 ft 475 kts 95°
2026-05-07 15:45 51.09690 2.56901 35034 ft 476 kts 101°
2026-05-07 15:46 51.06904 2.71932 35032 ft 474 kts 113°
2026-05-07 15:47 51.04069 2.81376 35036 ft 473 kts 119°
2026-05-07 15:47 51.00983 2.90579 35031 ft 474 kts 119°
2026-05-07 15:48 50.97875 2.99823 35023 ft 474 kts 119°
2026-05-07 15:48 50.94725 3.09184 35015 ft 474 kts 119°
2026-05-07 15:49 50.91632 3.18355 35010 ft 474 kts 119°
2026-05-07 15:49 50.88541 3.27486 35008 ft 474 kts 119°
2026-05-07 15:50 50.85408 3.36709 35007 ft 475 kts 119°
2026-05-07 15:50 50.82290 3.45855 35014 ft 475 kts 119°
2026-05-07 15:51 50.79144 3.55048 35015 ft 475 kts 119°
2026-05-07 15:51 50.75993 3.64229 35018 ft 475 kts 119°
2026-05-07 15:52 50.72833 3.73402 35013 ft 475 kts 120°
2026-05-07 15:52 50.69583 3.82798 35015 ft 475 kts 120°
2026-05-07 15:53 50.66357 3.92092 35011 ft 474 kts 120°
2026-05-07 15:53 50.63133 4.01344 35008 ft 474 kts 120°
2026-05-07 15:54 50.59977 4.10371 35012 ft 475 kts 120°
2026-05-07 15:54 50.56794 4.19442 35020 ft 475 kts 120°
2026-05-07 15:55 50.53596 4.28525 35021 ft 476 kts 120°
2026-05-07 15:55 50.50395 4.37584 35021 ft 476 kts 120°
2026-05-07 15:56 50.47174 4.46664 35026 ft 476 kts 120°
2026-05-07 15:56 50.43972 4.55660 35022 ft 476 kts 120°
2026-05-07 15:57 50.40742 4.64704 35025 ft 476 kts 120°
2026-05-07 15:57 50.37521 4.73692 35025 ft 476 kts 121°
2026-05-07 15:58 50.34288 4.82680 35015 ft 476 kts 121°
2026-05-07 15:58 50.31033 4.91695 35007 ft 476 kts 121°
2026-05-07 15:59 50.27765 5.00718 35006 ft 477 kts 120°
2026-05-07 15:59 50.24507 5.09687 34997 ft 477 kts 120°
2026-05-07 16:00 50.21255 5.18606 34997 ft 476 kts 121°
2026-05-07 16:00 50.17980 5.27558 34992 ft 476 kts 121°
2026-05-07 16:01 50.14702 5.36487 34992 ft 477 kts 120°
2026-05-07 16:01 50.11581 5.45631 34990 ft 478 kts 118°
2026-05-07 16:02 50.08501 5.54736 34986 ft 479 kts 118°
2026-05-07 16:02 50.05399 5.63877 34983 ft 478 kts 118°
2026-05-07 16:03 50.02306 5.72960 34983 ft 478 kts 118°
2026-05-07 16:03 49.99192 5.82071 34986 ft 478 kts 118°
2026-05-07 16:04 49.96081 5.91140 34975 ft 478 kts 119°
2026-05-07 16:04 49.92957 6.00212 34992 ft 478 kts 119°
2026-05-07 16:05 49.89814 6.09301 34985 ft 478 kts 118°
2026-05-07 16:05 49.86676 6.18348 34991 ft 479 kts 118°
2026-05-07 16:06 49.83537 6.27366 34992 ft 478 kts 118°
2026-05-07 16:06 49.80379 6.36412 34988 ft 478 kts 118°
2026-05-07 16:07 49.77230 6.45401 34996 ft 478 kts 118°
2026-05-07 16:07 49.74050 6.54441 34994 ft 478 kts 118°
2026-05-07 16:08 49.70875 6.63435 34993 ft 478 kts 118°
2026-05-07 16:08 49.67704 6.72389 35002 ft 478 kts 119°
2026-05-07 16:09 49.64520 6.81348 34988 ft 478 kts 119°
2026-05-07 16:09 49.61332 6.90285 34981 ft 478 kts 119°
2026-05-07 16:10 49.58116 6.99273 34993 ft 478 kts 119°
2026-05-07 16:10 49.54914 7.08187 34982 ft 478 kts 119°
2026-05-07 16:11 49.51687 7.17143 34990 ft 478 kts 119°
2026-05-07 16:11 49.48459 7.26069 34981 ft 478 kts 119°
2026-05-07 16:12 49.45203 7.35041 34987 ft 478 kts 119°
2026-05-07 16:12 49.41965 7.43936 34987 ft 478 kts 119°
2026-05-07 16:13 49.38726 7.52803 34989 ft 478 kts 119°
2026-05-07 16:13 49.35406 7.61855 34992 ft 479 kts 119°
2026-05-07 16:14 49.32346 7.70175 34985 ft 480 kts 120°
2026-05-07 16:14 49.29069 7.79053 34986 ft 480 kts 120°
2026-05-07 16:15 49.25744 7.88031 34991 ft 480 kts 120°
2026-05-07 16:15 49.22406 7.97013 34985 ft 480 kts 120°
2026-05-07 16:16 49.19102 8.05877 34987 ft 479 kts 120°
2026-05-07 16:16 49.15791 8.14729 34989 ft 480 kts 120°
2026-05-07 16:17 49.12463 8.23596 34997 ft 480 kts 120°
2026-05-07 16:17 49.09163 8.32365 34993 ft 480 kts 120°
2026-05-07 16:18 49.05788 8.41293 34986 ft 480 kts 120°
2026-05-07 16:18 49.02284 8.50059 34989 ft 480 kts 124°
2026-05-07 16:19 48.98204 8.58056 34988 ft 480 kts 132°
2026-05-07 16:19 48.93509 8.65225 34982 ft 479 kts 140°
2026-05-07 16:20 48.88336 8.71608 34987 ft 478 kts 143°
2026-05-07 16:20 48.83146 8.77831 34981 ft 479 kts 143°
2026-05-07 16:21 48.77904 8.84118 34978 ft 479 kts 143°
2026-05-07 16:21 48.72725 8.90320 34973 ft 479 kts 143°
2026-05-07 16:22 48.67501 8.96560 34972 ft 478 kts 143°
2026-05-07 16:22 48.62295 9.02764 34984 ft 479 kts 143°
2026-05-07 16:23 48.57065 9.08980 34988 ft 479 kts 143°
2026-05-07 16:23 48.51829 9.15187 34990 ft 480 kts 143°
2026-05-07 16:24 48.46614 9.21352 34996 ft 480 kts 143°
2026-05-07 16:24 48.41343 9.27566 34992 ft 480 kts 144°
2026-05-07 16:25 48.36103 9.33729 34993 ft 480 kts 144°
2026-05-07 16:25 48.30856 9.39883 34984 ft 480 kts 144°
2026-05-07 16:26 48.25575 9.46093 34989 ft 481 kts 142°
2026-05-07 16:26 48.20508 9.52611 34993 ft 482 kts 141°
2026-05-07 16:27 48.15456 9.59150 34991 ft 482 kts 141°
2026-05-07 16:27 48.10379 9.65707 34991 ft 482 kts 142°
2026-05-07 16:28 48.05310 9.72238 34996 ft 482 kts 142°
2026-05-07 16:28 48.00223 9.78774 34999 ft 482 kts 142°
2026-05-07 16:29 47.95180 9.85238 34998 ft 482 kts 142°
2026-05-07 16:29 47.90101 9.91778 34998 ft 483 kts 140°
2026-05-07 16:30 47.85364 9.98911 35004 ft 486 kts 134°
2026-05-07 16:30 47.81198 10.06807 35006 ft 488 kts 127°
2026-05-07 16:31 47.77625 10.15364 35002 ft 490 kts 122°
2026-05-07 16:31 47.74217 10.24083 35005 ft 490 kts 122°
2026-05-07 16:32 47.70788 10.32803 35006 ft 490 kts 122°
2026-05-07 16:32 47.67354 10.41487 35009 ft 490 kts 122°
2026-05-07 16:33 47.63924 10.50123 35008 ft 490 kts 122°
2026-05-07 16:33 47.60469 10.58787 35010 ft 490 kts 122°
2026-05-07 16:34 47.56986 10.67497 35016 ft 490 kts 123°
2026-05-07 16:34 47.53523 10.76126 35022 ft 491 kts 123°
2026-05-07 16:35 47.50045 10.84764 35022 ft 491 kts 123°
2026-05-07 16:35 47.46556 10.93404 35026 ft 491 kts 123°
2026-05-07 16:36 47.43046 11.02070 35016 ft 491 kts 123°
2026-05-07 16:36 47.39543 11.10692 35022 ft 491 kts 123°
2026-05-07 16:37 47.36032 11.19307 35024 ft 492 kts 123°
2026-05-07 16:37 47.32511 11.27916 35019 ft 492 kts 123°
2026-05-07 16:38 47.28980 11.36525 35005 ft 493 kts 124°
2026-05-07 16:38 47.25424 11.45165 35001 ft 494 kts 124°
2026-05-07 16:39 47.21855 11.53810 35013 ft 495 kts 124°
2026-05-07 16:39 47.18292 11.62417 35034 ft 495 kts 124°
2026-05-07 16:40 47.14706 11.71056 35017 ft 494 kts 124°
2026-05-07 16:40 47.11132 11.79637 34995 ft 496 kts 125°
2026-05-07 16:41 47.07633 11.88329 34997 ft 498 kts 121°
2026-05-07 16:41 47.04553 11.97403 35000 ft 499 kts 119°
2026-05-07 16:42 47.01506 12.06545 35015 ft 500 kts 119°
2026-05-07 16:42 46.98465 12.15620 35003 ft 500 kts 119°
2026-05-07 16:43 46.95397 12.24733 34989 ft 500 kts 119°
2026-05-07 16:43 46.92336 12.33786 34989 ft 500 kts 119°
2026-05-07 16:44 46.89251 12.42877 35011 ft 500 kts 119°
2026-05-07 16:44 46.86165 12.51942 35029 ft 500 kts 119°
2026-05-07 16:45 46.83056 12.61041 35016 ft 500 kts 119°
2026-05-07 16:45 46.79965 12.70055 34987 ft 499 kts 120°
2026-05-07 16:46 46.76843 12.79131 34976 ft 500 kts 120°
2026-05-07 16:46 46.73740 12.88118 34992 ft 500 kts 120°
2026-05-07 16:47 46.70607 12.97160 35006 ft 500 kts 120°
2026-05-07 16:47 46.67481 13.06156 35014 ft 500 kts 121°
2026-05-07 16:48 46.64344 13.15156 35007 ft 500 kts 121°
2026-05-07 16:48 46.61219 13.24093 35006 ft 500 kts 121°
2026-05-07 16:49 46.58062 13.33069 35009 ft 500 kts 121°
2026-05-07 16:49 46.54493 13.41721 35010 ft 496 kts 129°
2026-05-07 16:50 46.50505 13.49827 34992 ft 495 kts 130°
2026-05-07 16:50 46.46499 13.57899 35000 ft 495 kts 130°
2026-05-07 16:51 46.42574 13.65793 35003 ft 494 kts 131°
2026-05-07 16:51 46.38524 13.73803 34998 ft 494 kts 131°
2026-05-07 16:52 46.34487 13.81766 34995 ft 494 kts 131°
2026-05-07 16:52 46.30416 13.89776 34987 ft 494 kts 131°
2026-05-07 16:53 46.26350 13.97763 34945 ft 495 kts 131°
2026-05-07 16:53 46.22286 14.05725 34974 ft 495 kts 131°
2026-05-07 16:54 46.18193 14.13720 34982 ft 496 kts 131°
2026-05-07 16:54 46.14109 14.21679 34982 ft 495 kts 132°
2026-05-07 16:55 46.10030 14.29598 34981 ft 496 kts 132°
2026-05-07 16:55 46.05921 14.37559 34968 ft 496 kts 132°
2026-05-07 16:56 46.01806 14.45504 34985 ft 496 kts 132°
2026-05-07 16:56 45.95641 14.57371 34983 ft 496 kts 132°
2026-05-07 16:57 45.91486 14.65339 34980 ft 496 kts 133°
2026-05-07 16:57 45.87365 14.73222 34980 ft 496 kts 133°
2026-05-07 16:58 45.83217 14.81131 34979 ft 496 kts 133°
2026-05-07 16:58 45.79066 14.89029 34974 ft 496 kts 133°
2026-05-07 16:59 45.74923 14.96890 34990 ft 495 kts 133°
2026-05-07 16:59 45.70761 15.04763 34977 ft 496 kts 133°
2026-05-07 17:00 45.66625 15.12566 34975 ft 495 kts 133°
2026-05-07 17:00 45.62471 15.20386 34988 ft 495 kts 133°
2026-05-07 17:01 45.58313 15.28183 34977 ft 494 kts 133°
2026-05-07 17:01 45.54345 15.36168 34978 ft 497 kts 130°
2026-05-07 17:02 45.50431 15.44238 34970 ft 496 kts 130°
2026-05-07 17:02 45.46510 15.52267 34973 ft 495 kts 130°
2026-05-07 17:03 45.42233 15.59844 34967 ft 489 kts 137°
2026-05-07 17:03 45.37523 15.66741 34975 ft 486 kts 141°
2026-05-07 17:04 45.32767 15.73583 34970 ft 486 kts 141°
2026-05-07 17:04 45.28033 15.80396 34979 ft 486 kts 141°
2026-05-07 17:05 45.23310 15.87207 34974 ft 487 kts 139°
2026-05-07 17:05 45.18880 15.94481 34978 ft 491 kts 135°
2026-05-07 17:06 45.14595 16.01956 34985 ft 491 kts 134°
2026-05-07 17:06 45.10307 16.09427 34987 ft 491 kts 134°
2026-05-07 17:07 45.05990 16.16917 34991 ft 491 kts 134°
2026-05-07 17:07 45.01671 16.24391 34992 ft 490 kts 134°
2026-05-07 17:08 44.97367 16.31819 34988 ft 490 kts 134°
2026-05-07 17:08 44.93070 16.39212 34992 ft 490 kts 134°
2026-05-07 17:09 44.88828 16.46494 34987 ft 490 kts 134°
2026-05-07 17:09 44.84475 16.53946 34991 ft 490 kts 134°
2026-05-07 17:10 44.80167 16.61303 35000 ft 490 kts 134°
2026-05-07 17:10 44.75832 16.68687 34997 ft 489 kts 135°
2026-05-07 17:11 44.71520 16.76009 34987 ft 489 kts 135°
2026-05-07 17:11 44.67172 16.83374 34996 ft 490 kts 135°
2026-05-07 17:12 44.62851 16.90675 35008 ft 490 kts 135°
2026-05-07 17:12 44.58495 16.98017 35019 ft 490 kts 134°
2026-05-07 17:13 44.54136 17.05348 35028 ft 490 kts 135°
2026-05-07 17:13 44.49753 17.12700 35031 ft 490 kts 135°
2026-05-07 17:14 44.45377 17.20021 35030 ft 490 kts 135°
2026-05-07 17:14 44.41019 17.27287 35031 ft 490 kts 135°
2026-05-07 17:15 44.36651 17.34554 35027 ft 490 kts 134°
2026-05-07 17:15 44.32203 17.41938 35028 ft 489 kts 134°
2026-05-07 17:16 44.27822 17.49190 35035 ft 490 kts 134°
2026-05-07 17:16 44.23401 17.56490 35040 ft 491 kts 134°
2026-05-07 17:17 44.19014 17.63717 35044 ft 490 kts 134°
2026-05-07 17:17 44.14579 17.71006 35048 ft 490 kts 135°
2026-05-07 17:18 44.10169 17.78233 35039 ft 489 kts 135°
2026-05-07 17:18 44.05773 17.85420 35039 ft 489 kts 135°
2026-05-07 17:19 44.01380 17.92581 35040 ft 489 kts 135°
2026-05-07 17:19 43.96989 17.99725 35038 ft 489 kts 135°
2026-05-07 17:20 43.92562 18.06910 35037 ft 489 kts 135°
2026-05-07 17:20 43.88131 18.14081 35047 ft 490 kts 135°
2026-05-07 17:21 43.83706 18.21224 35058 ft 492 kts 135°
2026-05-07 17:21 43.79266 18.28375 35068 ft 491 kts 135°
2026-05-07 17:22 43.74815 18.35527 35074 ft 493 kts 135°
2026-05-07 17:22 43.70349 18.42687 35072 ft 493 kts 135°
2026-05-07 17:23 43.65866 18.49854 35068 ft 494 kts 135°
2026-05-07 17:23 43.61368 18.57026 35069 ft 495 kts 135°
2026-05-07 17:24 43.56891 18.64153 35070 ft 495 kts 135°
2026-05-07 17:24 43.52362 18.71345 35073 ft 496 kts 136°
2026-05-07 17:25 43.47860 18.78492 35085 ft 498 kts 135°
2026-05-07 17:25 43.43469 18.85986 35086 ft 500 kts 133°
2026-05-07 17:26 43.39121 18.93477 35085 ft 500 kts 133°
2026-05-07 17:26 43.34781 19.00938 35103 ft 502 kts 133°
2026-05-07 17:27 43.30400 19.08444 35090 ft 503 kts 133°
2026-05-07 17:27 43.26046 19.15881 35086 ft 503 kts 133°
2026-05-07 17:28 43.21643 19.23381 35091 ft 506 kts 133°
2026-05-07 17:28 43.17247 19.30854 35098 ft 506 kts 133°
2026-05-07 17:29 43.12820 19.38361 35093 ft 507 kts 133°
2026-05-07 17:29 43.08380 19.45872 35089 ft 508 kts 133°
2026-05-07 17:30 43.03964 19.53322 35086 ft 508 kts 133°
2026-05-07 17:30 42.99518 19.60801 35088 ft 510 kts 132°
2026-05-07 17:31 42.95029 19.68337 35079 ft 510 kts 133°
2026-05-07 17:31 42.90563 19.75819 35082 ft 510 kts 133°
2026-05-07 17:32 42.86077 19.83316 35198 ft 511 kts 133°
2026-05-07 17:32 42.81593 19.90786 35103 ft 510 kts 133°
2026-05-07 17:33 42.77111 19.98245 35087 ft 512 kts 133°
2026-05-07 17:33 42.72573 20.05759 35100 ft 514 kts 133°
2026-05-07 17:34 42.68051 20.13214 35102 ft 514 kts 133°
2026-05-07 17:34 42.63506 20.20698 35098 ft 514 kts 133°
2026-05-07 17:35 42.58950 20.28191 35096 ft 515 kts 133°
2026-05-07 17:35 42.54414 20.35622 35078 ft 515 kts 133°
2026-05-07 17:36 42.49808 20.43160 35076 ft 517 kts 133°
2026-05-07 17:36 42.45230 20.50628 35064 ft 519 kts 133°
2026-05-07 17:37 42.40611 20.58148 35083 ft 520 kts 133°
2026-05-07 17:37 42.36029 20.65593 35061 ft 519 kts 134°
2026-05-07 17:38 42.31381 20.73116 35077 ft 519 kts 134°
2026-05-07 17:38 42.26727 20.80638 35067 ft 521 kts 134°
2026-05-07 17:39 42.22087 20.88125 35066 ft 521 kts 134°
2026-05-07 17:39 42.17411 20.95640 35071 ft 525 kts 134°
2026-05-07 17:40 42.12817 21.03238 35059 ft 532 kts 127°
2026-05-07 17:40 42.08995 21.11851 35089 ft 535 kts 124°
2026-05-07 17:41 42.06820 21.15801 35057 ft 529 kts 136°
2026-05-07 17:41 42.04152 21.19132 35063 ft 522 kts 149°
2026-05-07 17:41 41.98083 21.24315 35049 ft 514 kts 152°
2026-05-07 17:42 41.92287 21.30033 35086 ft 524 kts 145°
2026-05-07 17:42 41.86792 21.36502 35077 ft 528 kts 142°
2026-05-07 17:43 41.81412 21.43213 35107 ft 531 kts 141°
2026-05-07 17:43 41.76054 21.49955 35097 ft 530 kts 141°
2026-05-07 17:44 41.70677 21.56699 35115 ft 534 kts 141°
2026-05-07 17:44 41.65255 21.63484 35091 ft 529 kts 141°
2026-05-07 17:45 41.62608 21.66785 35075 ft 518 kts 142°
2026-05-07 17:45 41.60090 21.69931 35073 ft 514 kts 142°
2026-05-07 17:45 41.54853 21.76447 35070 ft 512 kts 142°
2026-05-07 17:46 41.49649 21.82908 35070 ft 514 kts 143°
2026-05-07 17:46 41.44410 21.89385 35091 ft 516 kts 142°
2026-05-07 17:47 41.39168 21.95851 35070 ft 517 kts 142°
2026-05-07 17:47 41.33892 22.02367 35103 ft 517 kts 143°
2026-05-07 17:48 41.28646 22.08817 35086 ft 518 kts 142°
2026-05-07 17:48 41.23324 22.15349 35095 ft 521 kts 142°
2026-05-07 17:49 41.18009 22.21864 35121 ft 522 kts 143°
2026-05-07 17:49 41.12555 22.28033 35115 ft 518 kts 147°
2026-05-07 17:50 41.06924 22.34050 35128 ft 518 kts 146°
2026-05-07 17:50 41.01321 22.40042 35117 ft 519 kts 147°
2026-05-07 17:51 40.95744 22.46015 35105 ft 519 kts 147°
2026-05-07 17:51 40.90134 22.52005 35095 ft 519 kts 147°
2026-05-07 17:52 40.84476 22.58036 35091 ft 520 kts 146°
2026-05-07 17:52 40.78859 22.64019 35093 ft 520 kts 146°
2026-05-07 17:53 40.73221 22.70012 35083 ft 520 kts 147°
2026-05-07 17:53 40.67589 22.75966 35079 ft 522 kts 146°
2026-05-07 17:54 40.61945 22.81946 35072 ft 521 kts 147°
2026-05-07 17:54 40.56311 22.87895 35074 ft 520 kts 147°
2026-05-07 17:55 40.50650 22.93848 35083 ft 522 kts 146°
2026-05-07 17:55 40.45113 22.99950 35067 ft 525 kts 141°
2026-05-07 17:56 40.39988 23.06800 35063 ft 526 kts 136°
2026-05-07 17:56 40.34981 23.13786 35070 ft 527 kts 136°
2026-05-07 17:57 40.30782 23.19620 35074 ft 527 kts 137°
2026-05-07 17:57 40.24905 23.27717 35074 ft 526 kts 137°
2026-05-07 17:58 40.19879 23.34599 35071 ft 527 kts 136°
2026-05-07 17:58 40.14832 23.41520 35075 ft 527 kts 137°
2026-05-07 17:59 40.09764 23.48441 35074 ft 527 kts 137°
2026-05-07 17:59 40.04727 23.55305 35076 ft 529 kts 136°
2026-05-07 18:00 39.99651 23.62215 35082 ft 528 kts 136°
2026-05-07 18:00 39.94572 23.69108 35077 ft 529 kts 137°
2026-05-07 18:01 39.89476 23.75991 35077 ft 530 kts 137°
2026-05-07 18:01 39.84367 23.82901 35076 ft 531 kts 137°
2026-05-07 18:02 39.76704 23.93227 35079 ft 530 kts 137°
2026-05-07 18:03 39.71610 24.00063 35078 ft 529 kts 137°
2026-05-07 18:03 39.66465 24.06940 35079 ft 531 kts 137°
2026-05-07 18:04 39.61333 24.13821 35076 ft 529 kts 137°
2026-05-07 18:04 39.56225 24.20621 35081 ft 530 kts 137°
2026-05-07 18:05 39.51078 24.27485 35076 ft 529 kts 137°
2026-05-07 18:05 39.45938 24.34299 35083 ft 529 kts 137°
2026-05-07 18:06 39.40825 24.41081 35080 ft 528 kts 136°
2026-05-07 18:06 39.35725 24.47832 35076 ft 528 kts 136°
2026-05-07 18:07 39.30617 24.54601 35077 ft 528 kts 135°
2026-05-07 18:07 39.25517 24.61433 35068 ft 528 kts 135°
2026-05-07 18:08 39.20395 24.68261 35059 ft 528 kts 136°
2026-05-07 18:08 39.15322 24.75032 35056 ft 527 kts 136°
2026-05-07 18:09 39.10228 24.81804 35057 ft 528 kts 136°
2026-05-07 18:09 39.05094 24.88473 35065 ft 528 kts 137°
2026-05-07 18:10 38.99903 24.95176 35055 ft 528 kts 136°
2026-05-07 18:10 38.94750 25.01824 35054 ft 528 kts 136°
2026-05-07 18:11 38.89565 25.08532 35066 ft 527 kts 137°
2026-05-07 18:11 38.84411 25.15156 34754 ft 527 kts 136°
2026-05-07 18:11 38.81820 25.18500 34472 ft 523 kts 137°
2026-05-07 18:12 38.79296 25.21744 34129 ft 520 kts 137°
2026-05-07 18:12 38.76756 25.24992 33726 ft 516 kts 136°
2026-05-07 18:12 38.74223 25.28232 33326 ft 512 kts 136°
2026-05-07 18:12 38.71708 25.31451 32844 ft 511 kts 136°
2026-05-07 18:13 38.69223 25.34648 32398 ft 506 kts 136°
2026-05-07 18:13 38.66730 25.37835 31930 ft 502 kts 136°
2026-05-07 18:13 38.64307 25.40924 31501 ft 497 kts 136°
2026-05-07 18:13 38.61876 25.44020 31057 ft 492 kts 136°
2026-05-07 18:14 38.59444 25.47118 30619 ft 487 kts 136°
2026-05-07 18:14 38.57072 25.50140 30167 ft 482 kts 135°
2026-05-07 18:14 38.54726 25.53124 29674 ft 477 kts 136°
2026-05-07 18:14 38.52401 25.56079 29199 ft 474 kts 135°
2026-05-07 18:15 38.50069 25.59041 28674 ft 475 kts 136°
2026-05-07 18:15 38.47709 25.62036 28060 ft 475 kts 136°
2026-05-07 18:15 38.45378 25.64990 27433 ft 475 kts 136°
2026-05-07 18:15 38.43059 25.67926 27030 ft 467 kts 136°
2026-05-07 18:16 38.40770 25.70823 26619 ft 460 kts 136°
2026-05-07 18:16 38.38493 25.73698 26159 ft 456 kts 136°
2026-05-07 18:16 38.36266 25.76515 25679 ft 452 kts 136°
2026-05-07 18:16 38.34070 25.79290 25227 ft 448 kts 136°
2026-05-07 18:17 38.31878 25.82065 24782 ft 444 kts 136°
2026-05-07 18:17 38.29684 25.84837 24370 ft 440 kts 136°
2026-05-07 18:17 38.27537 25.87551 23925 ft 437 kts 136°
2026-05-07 18:17 38.25367 25.90264 23483 ft 433 kts 137°
2026-05-07 18:18 38.23149 25.92799 23057 ft 428 kts 140°
2026-05-07 18:18 38.20918 25.95275 22594 ft 426 kts 140°
2026-05-07 18:18 38.18702 25.97728 22102 ft 424 kts 140°
2026-05-07 18:18 38.16496 26.00170 21595 ft 423 kts 140°
2026-05-07 18:19 38.14273 26.02633 21099 ft 421 kts 139°
2026-05-07 18:19 38.12064 26.05076 20640 ft 418 kts 139°
2026-05-07 18:19 38.09885 26.07490 20160 ft 416 kts 139°
2026-05-07 18:19 38.07737 26.09918 19668 ft 415 kts 136°
2026-05-07 18:20 38.05804 26.12627 19180 ft 413 kts 128°
2026-05-07 18:20 38.04199 26.15573 18718 ft 410 kts 121°
2026-05-07 18:20 38.02728 26.18685 18229 ft 408 kts 119°
2026-05-07 18:20 38.01307 26.21781 17726 ft 407 kts 119°
2026-05-07 18:21 37.99892 26.24852 17236 ft 406 kts 120°
2026-05-07 18:21 37.98463 26.27929 16765 ft 403 kts 120°
2026-05-07 18:21 37.97059 26.30931 16325 ft 399 kts 120°
2026-05-07 18:21 37.95650 26.33925 15874 ft 396 kts 120°
2026-05-07 18:22 37.94238 26.36922 15410 ft 394 kts 120°
2026-05-07 18:22 37.93308 26.38893 15102 ft 392 kts 120°
2026-05-07 18:22 37.91457 26.42810 14493 ft 388 kts 120°
2026-05-07 18:22 37.90076 26.45730 14031 ft 386 kts 120°
2026-05-07 18:23 37.88701 26.48638 13573 ft 383 kts 120°
2026-05-07 18:23 37.87343 26.51505 13113 ft 380 kts 120°
2026-05-07 18:23 37.85989 26.54367 12668 ft 376 kts 120°
2026-05-07 18:23 37.84654 26.57180 12244 ft 372 kts 120°
2026-05-07 18:24 37.83331 26.59965 11871 ft 366 kts 120°
2026-05-07 18:24 37.82037 26.62658 11577 ft 358 kts 122°
2026-05-07 18:24 37.80399 26.64971 11118 ft 355 kts 143°
2026-05-07 18:24 37.78207 26.66369 10674 ft 349 kts 165°
2026-05-07 18:25 37.75853 26.66626 10311 ft 340 kts 188°
2026-05-07 18:25 37.73624 26.65892 10178 ft 324 kts 205°
2026-05-07 18:25 37.71641 26.64653 10140 ft 307 kts 209°
2026-05-07 18:25 37.69732 26.63521 9946 ft 299 kts 205°
2026-05-07 18:26 37.67770 26.62704 9564 ft 300 kts 194°
2026-05-07 18:26 37.65710 26.62349 9205 ft 298 kts 184°
2026-05-07 18:26 37.63635 26.62438 8840 ft 297 kts 174°
2026-05-07 18:26 37.61623 26.62892 8493 ft 295 kts 166°
2026-05-07 18:27 37.59656 26.63662 8146 ft 292 kts 159°
2026-05-07 18:27 37.57805 26.64678 7788 ft 290 kts 153°
2026-05-07 18:27 37.56058 26.65911 7434 ft 287 kts 147°
2026-05-07 18:27 37.54439 26.67319 7258 ft 277 kts 142°
2026-05-07 18:28 37.53003 26.68812 7215 ft 262 kts 136°
2026-05-07 18:28 37.51720 26.70380 7167 ft 251 kts 132°
2026-05-07 18:28 37.50560 26.72036 7068 ft 253 kts 128°
2026-05-07 18:28 37.49499 26.73804 6687 ft 254 kts 123°
2026-05-07 18:29 37.48561 26.75645 6312 ft 251 kts 118°
2026-05-07 18:29 37.47740 26.77553 5942 ft 243 kts 113°
2026-05-07 18:29 37.47200 26.79511 5597 ft 231 kts 99°
2026-05-07 18:29 37.47039 26.81492 5277 ft 225 kts 87°
2026-05-07 18:30 37.47236 26.83412 5012 ft 219 kts 75°
2026-05-07 18:30 37.47745 26.85174 4720 ft 212 kts 64°
2026-05-07 18:30 37.48512 26.86707 4368 ft 207 kts 52°
2026-05-07 18:30 37.49500 26.87988 4044 ft 199 kts 40°
2026-05-07 18:31 37.50618 26.88949 3734 ft 191 kts 29°
2026-05-07 18:31 37.51819 26.89598 3454 ft 183 kts 18°
2026-05-07 18:31 37.53033 26.89940 3184 ft 173 kts
2026-05-07 18:31 37.54179 26.90040 2961 ft 158 kts
2026-05-07 18:32 37.55232 26.90088 2747 ft 149 kts
2026-05-07 18:32 37.56269 26.90130 2553 ft 148 kts
2026-05-07 18:32 37.57301 26.90174 2360 ft 147 kts
2026-05-07 18:32 37.58330 26.90219 2162 ft 147 kts
2026-05-07 18:33 37.59341 26.90263 1969 ft 146 kts
2026-05-07 18:33 37.60356 26.90309 1812 ft 145 kts
2026-05-07 18:33 37.61355 26.90141 1799 ft 145 kts 338°
2026-05-07 18:33 37.62269 26.89591 1836 ft 146 kts 331°
2026-05-07 18:34 37.63176 26.89023 1791 ft 146 kts 334°
2026-05-07 18:34 37.64106 26.88480 1703 ft 146 kts 334°
2026-05-07 18:34 37.65023 26.87955 1569 ft 146 kts 335°
2026-05-07 18:34 37.65956 26.87445 1330 ft 145 kts 336°
2026-05-07 18:35 37.66891 26.86984 1075 ft 144 kts 339°
2026-05-07 18:35 37.67868 26.86730 865 ft 144 kts
2026-05-07 18:35 37.68681 26.87329 673 ft 146 kts 52°
2026-05-07 18:35 37.69026 26.88501 400 ft 144 kts 84°
2026-05-07 18:36 37.69003 26.89754 126 ft 143 kts 93°
2026-05-07 18:36 37.68932 26.90961 31 ft 114 kts 94°
2026-05-07 18:36 37.68894 26.91591 29 ft 44 kts 94°
2026-05-07 18:36 37.68872 26.91942 28 ft 32 kts 95°
2026-05-07 18:37 37.68856 26.92197 28 ft 21 kts 94°
2026-05-07 18:37 37.68860 26.92290 27 ft 7 kts 69°
2026-05-07 18:37 37.68854 26.92318 27 ft 3 kts 159°
2026-05-07 18:37 37.68839 26.92300 27 ft 4 kts 273°
2026-05-07 18:38 37.68849 26.92257 27 ft 5 kts 287°
2026-05-07 18:38 37.68856 26.92201 27 ft 7 kts 274°
2026-05-07 18:38 37.68861 26.92123 27 ft 10 kts 274°
2026-05-07 18:38 37.68867 26.92023 28 ft 12 kts 275°
2026-05-07 18:39 37.68875 26.91906 28 ft 14 kts 275°
2026-05-07 18:39 37.68883 26.91776 28 ft 15 kts 274°
2026-05-07 18:39 37.68892 26.91638 29 ft 16 kts 274°
2026-05-07 18:39 37.68899 26.91495 29 ft 16 kts 274°
2026-05-07 18:40 37.68908 26.91387 29 ft 7 kts 296°
2026-05-07 18:40 37.68944 26.91368 30 ft 6 kts
2026-05-07 18:40 37.68983 26.91365 30 ft 5 kts 324°
2026-05-07 18:40 37.68996 26.91318 30 ft 6 kts 274°
2026-05-07 18:41 37.68999 26.91259 31 ft 7 kts 274°
2026-05-07 18:41 37.69003 26.91200 31 ft 3 kts 280°
2026-05-07 18:41 37.69017 26.91185 31 ft 2 kts 344°
2026-05-07 18:41 37.69031 26.91183 32 ft 1 kts 357°
2026-05-07 18:42 37.69049 26.91184 33 ft 2 kts
2026-05-07 18:42 37.69063 26.91185 33 ft 0 kts